• Join FlightAware (Why Join?)
  • Login
  • US Flag 
06:57AM EST


 

Airport Tracker/Info


-or-


 

Live Flight TrackerFlight Track Log ✈ SWA127 ✈ 14-Apr-2013 ✈ KHOU - KHRL

Flight Track Log - Related Links

Times and Time Zones

All times are in EDT time to prevent confusion due to time zone crossing. See the SWA127 flight status page for this flight to view local times or setup timezone preferences in your user account.

Time Position Orientation Groundspeed Altitude Reporting Facility
EDT Latitude Longitude Course Direction KTS MPH feet Rate Location/Type
12:05PM 29.6564 -95.2650 131° Southeast 155 178 600  Level Houston Center
12:06PM 29.6222 -95.2194 131° Southeast 234 269 3,000 1,895 Climbing Houston Center
12:07PM 29.5622 -95.1828 152° Southeast 250 288 4,800 2,371 Climbing Houston Center
12:08PM 29.4925 -95.1447 155° Southeast 277 319 7,900 3,048 Climbing Houston Center
12:09PM 29.4128 -95.1433 179° South 286 329 11,100 2,710 Climbing Houston Center
12:10PM 29.3139 -95.1928 204° Southwest 334 384 13,500 2,341 Climbing Houston Center
12:11PM 29.2308 -95.2569 214° Southwest 356 410 15,900 2,488 Climbing Houston Center
12:12PM 29.1422 -95.3228 213° Southwest 370 426 18,600 2,226 Climbing Houston Center
12:13PM 29.0528 -95.3886 213° Southwest 380 437 20,500 1,790 Climbing Houston Center
12:14PM 28.9697 -95.4814 224° Southwest 413 475 22,300 1,887 Climbing Houston Center
12:15PM 28.8786 -95.5644 219° Southwest 418 481 24,400 1,790 Climbing Houston Center
12:16PM 28.7653 -95.6633 217° Southwest 425 489 26,000 774 Climbing Houston Center
12:17PM 28.6697 -95.7489 218° Southwest 434 499 26,000  Level Houston Center
12:18PM 28.5733 -95.8342 218° Southwest 437 503 26,000  Level Houston Center
12:19PM 28.4764 -95.9208 218° Southwest 441 507 26,000  Level Houston Center
12:20PM 28.3811 -96.0044 218° Southwest 446 513 26,000  Level Houston Center
12:21PM 28.2831 -96.0894 217° Southwest 444 511 26,000  Level Houston Center
12:22PM 28.1647 -96.1947 218° Southwest 447 514 26,000 -48 Level Houston Center
12:23PM 28.0689 -96.2786 218° Southwest 440 506 25,900  Descending Houston Center
12:24PM 27.9719 -96.3633 218° Southwest 438 504 26,000 48 Climbing Houston Center
12:25PM 27.8764 -96.4472 218° Southwest 437 503 26,000  Level Houston Center
12:26PM 27.7803 -96.5308 218° Southwest 435 501 26,000  Level Houston Center
12:27PM 27.6842 -96.6128 217° Southwest 434 499 26,000  Level Houston Center
12:28PM 27.5700 -96.7136 218° Southwest 433 498 26,000  Level Houston Center
12:29PM 27.4747 -96.7944 217° Southwest 431 496 26,000 -96 Level Houston Center
12:30PM 27.3764 -96.8806 218° Southwest 436 502 25,800 -919 Descending Houston Center
12:32PM 27.2825 -96.9594 217° Southwest 427 491 24,100 -878 Descending Houston Center
12:33PM 27.1967 -97.0344 218° Southwest 403 464 24,000 -871 Descending Houston Center
12:34PM 27.1103 -97.1089 217° Southwest 393 452 22,300 -2,129 Descending Houston Center
12:35PM 27.0244 -97.1808 217° Southwest 388 447 19,600 -3,087 Descending Houston Center
12:35PM 26.9517 -97.2433 217° Southwest 368 423 17,000 -3,097 Descending Houston Center
12:36PM 26.9267 -97.2639 216° Southwest 372 428 16,400 -896 Descending Houston Center
12:36PM 26.8689 -97.3133 217° Southwest 331 381 16,000 -387 Descending Houston Center
12:37PM 26.8486 -97.3297 216° Southwest 331 381 16,000 -900 Level Houston Center
12:37PM 26.8000 -97.3744 219° Southwest 318 366 15,100 -1,935 Descending Houston Center
12:38PM 26.7794 -97.3903 215° Southwest 317 365 14,000 -3,049 Descending Houston Center
12:38PM 26.7333 -97.4375 222° Southwest 315 362 12,000 -2,710 Descending Houston Center
12:39PM 26.7275 -97.4642 256° West 303 349 11,200 -2,066 Descending Houston Center
12:39PM 26.7264 -97.5297 269° West 302 348 9,900 -1,935 Descending Houston Center
12:40PM 26.7133 -97.5569 242° Southwest 302 348 9,200 -885 Descending Houston Center
12:40PM 26.6708 -97.5983 221° Southwest 283 326 9,000 -387 Descending Houston Center
12:41PM 26.6561 -97.6156 226° Southwest 279 321 8,800 -1,800 Descending Houston Center
12:41PM 26.6161 -97.6572 223° Southwest 278 320 7,200 -2,323 Descending Houston Center
12:42PM 26.5864 -97.6597 184° South 280 322 6,400 -1,967 Descending Houston Center
12:42PM 26.5381 -97.6558 176° South 273 314 5,200 -2,032 Descending Houston Center
12:43PM 26.5128 -97.6539 176° South 263 303 4,300 -1,967 Descending Houston Center
12:43PM 26.4731 -97.6578 185° South 232 267 3,200 -1,258 Descending Houston Center
12:44PM 26.4492 -97.6558 176° South 211 243 3,000 -98 Descending Houston Center
12:45PM 26.4206 -97.6578 183° South 189 217 3,100  Climbing Houston Center
12:45PM 26.3981 -97.6569 178° South 186 214 3,000 -614 Descending Houston Center
12:46PM 26.3494 -97.6575 181° South 170 196 2,200 -903 Descending Houston Center
12:47PM 26.3050 -97.6592 182° South 170 196 1,300 -909 Descending Houston Center
12:48PM 26.2733 -97.6586 179° South 153 176 700 -649 Descending Houston Center
12:48PM 26.2594 -97.6589 181° South 145 167 500 -414 Descending Houston Center
12:49PM 26.2281 -97.6586 180° South 131 151 100 -393 Descending Houston Center
12:51PM 26.2271 -97.6551 186° South  Level Estimated